CAPE
361 665 652 719 944 1370 1347 1482 1430 1622 1691 1800 1712 1732 1936 1385 1747 2032 1944 2319 2405 2216 2467 2302 2190 2168 2134 2286 2008 2206 1711 1597 1771 2322 2130 2642 3096 3335 3468 3452 3388 3561 3831 4100 3946 3930 3998 3997 3917 3764 3555 3685 3628 3664 3433 3133 3113 3152 3130 3189 3320 3240 3326 3316 3096 2659 2744 2379 2276 2037 1897 1664 1994 1550 1163 1476 1278 1002 1431 1523 1714 1632 1307 1266 1035
542 692 823 833 968 1291 1606 1088 1320 1572 1680 1811 1819 1785 1650 1573 1788 2093 2277 2309 2451 2424 2502 2320 2344 2390 2390 2592 2354 2294 1872 1780 2123 2560 2886 3115 3376 3526 3494 3381 3360 3534 3780 3932 3886 3997 3844 3860 3870 3832 3706 3582 3398 3325 3350 3305 3024 3017 2655 2411 2469 2869 3074 3114 3062 2827 2859 2554 2042 1601 1726 1637 1663 1530 1591 1548 1362 1295 1398 1703 1559 1266 1300 1115 1090
648 818 733 905 1208 1340 1628 1184 1236 1363 1558 1838 1905 1603 1794 1789 1988 2109 2306 2438 2536 2376 2320 2212 2251 2433 2401 2572 2320 2022 1996 2114 2240 2568 3049 3276 3514 3529 3581 3406 3595 3835 3788 3747 3874 3992 3806 3682 3700 3586 3683 3538 3548 3363 3323 3188 3104 2863 2289 2158 2058 1735 2578 3053 2949 2742 2925 2683 2353 2369 2268 2341 1464 1416 1166 1036 1251 1258 1326 1508 1469 1544 1188 1039 812
841 892 990 1050 1092 1247 1715 1347 1403 1570 1674 1948 1799 1726 1863 1832 1985 2172 2362 2561 2481 2402 2251 2276 2399 2324 2252 2203 2116 2079 2136 2248 2427 2652 2834 3095 3438 3508 3570 3680 3604 3381 3324 3624 3710 3808 3751 3592 3761 3814 3658 3698 3428 3372 3284 3027 2982 2958 2599 2318 2193 2253 2338 2822 2698 2725 2806 2246 2570 2430 2066 1299 1470 2542 981 1208 1253 1299 1115 1397 1390 1249 951 1072 1060
797 940 1079 1228 1342 1186 1502 1612 1534 1683 1900 1837 1706 1491 1890 1881 2098 2116 2028 2385 2485 2426 2304 2492 2304 2187 2186 2252 2320 2276 2190 2248 2478 2862 3041 3282 3586 3620 3701 3678 3544 3356 3394 3510 3728 3679 3514 3478 3445 3476 3470 3653 3703 3377 3144 3017 2973 2998 2766 2713 2920 2676 2704 2723 2731 2802 2760 2318 2584 2062 1305 1244 1234 2926 991 1031 1232 1150 1456 1378 1269 1230 1248 1216 1113
1023 1100 1116 1137 1214 1362 1432 1706 1658 1538 1874 1772 1620 1343 1616 1755 1872 2414 2497 2633 2459 2444 2408 2481 2296 2097 2249 2410 2416 2302 2277 2445 2500 2718 2869 3058 3223 3344 3385 3333 3314 3335 3375 3357 3423 3501 3488 3436 3417 3312 3264 3576 3906 3498 3444 3066 3000 3024 2679 2745 2953 2852 2849 2867 2932 2930 2794 2890 2452 1482 1434 1504 1480 1890 1182 1199 1195 1287 1060 1356 1386 1081 1046 1305 1236
1152 1140 1166 1168 1224 1178 1196 1482 1576 1469 1585 1499 1547 2028 1992 2036 2069 2607 2604 2532 2332 2323 2371 2360 2411 2231 2282 2294 2311 2293 2492 2524 2557 2820 2977 3206 3332 3284 3186 3111 3205 3284 3330 3436 3339 3260 3229 3073 2924 3081 3042 3214 3272 3730 3615 3256 2925 3055 2918 2544 2386 2712 2956 2936 2880 2924 2835 2303 1427 1388 1536 1642 1440 1616 1878 1167 1136 1148 1127 1339 1418 1273 1297 1110 1146
1013 1103 1312 1315 1194 1366 1275 1230 1370 1318 1418 1378 1228 1423 2153 2760 2696 2772 2531 2350 2395 2486 2586 2433 2576 2477 2344 2330 2376 2462 2648 2707 2830 2883 3033 3074 3098 3092 3009 3090 3236 3312 3371 3297 3156 2996 2882 2884 2897 3154 3150 3042 3149 3655 3595 3380 2971 2984 2608 2094 1966 2180 2311 2378 2470 1983 2347 1446 1293 1548 1552 1303 1331 1340 2660 1152 1361 1427 1308 1408 1532 1428 1322 1131 1134
1161 1273 1275 1228 1206 1327 992 1223 1329 1268 1208 1429 1932 2231 2539 2850 2895 2760 2606 2570 2674 2763 2673 2635 2433 2366 2226 2143 2216 2458 2528 2543 2571 2671 2658 2785 2835 2862 2905 3030 3136 3133 3084 3122 3156 2985 2930 2860 2809 2881 2825 2564 2932 3335 3685 3380 3176 2724 2518 2148 2262 2466 2524 2222 2398 2182 2130 1147 1321 1582 1332 1033 1246 1303 2440 1014 1130 1180 1390 1562 1701 1616 1316 1294 1126
1385 1303 1582 1682 1567 1748 2117 2584 2538 2412 2216 1874 2085 2362 2684 2960 2940 2971 3143 2802 2681 2898 2845 2552 2440 2381 2438 2441 2444 2374 2393 2542 2655 2625 2664 2836 2853 2860 2918 2897 2921 2876 2886 2978 2987 2903 2664 2614 2714 2642 2386 2412 2860 2948 3265 3419 3383 2982 2577 2394 2592 2491 2298 2228 2458 2013 1896 1557 1336 1654 990 2176 1371 1278 2035 1032 1237 1166 1305 1728 1721 1432 1272 1303 1160
1500 1591 1742 1839 2008 1645 1924 2256 2372 2128 1722 2040 1940 2187 2808 2898 3011 2988 2921 2816 2744 2658 2562 2582 2615 2596 2596 2606 2610 2589 2653 2742 2878 2950 3040 3013 3006 3036 3021 2975 2851 2717 2730 2814 2902 2784 2750 2649 2852 2654 2852 2716 2418 2875 3334 3571 3403 3051 2840 2442 2207 2254 2438 2572 2239 1438 1584 1329 1578 1248 1609 2455 1472 1346 2744 1077 1317 1304 1104 1420 1762 1551 1634 1208 1224
1762 2056 1970 1939 1982 2002 2122 2197 2226 1834 1767 1693 2123 2323 2639 2683 2682 2646 2720 2702 2670 2606 2660 2749 2827 2726 2595 2656 2734 2799 2844 2932 3022 2999 3008 3060 3114 3196 3102 3010 2902 2809 2753 2668 2698 2810 2843 2816 2636 2770 3124 3280 3313 3149 3094 3733 2973 2834 2850 2556 2434 2345 2497 2514 1952 1168 1553 1328 1266 1388 942 2645 1695 2406 2034 1084 1386 1293 1162 1219 1824 1705 1718 1248 1224
2100 2168 2164 1628 2027 2510 2423 2425 2244 1936 1856 1684 1927 2292 2600 2474 2625 2655 2670 2507 2856 2844 2782 2760 2562 2536 2594 2675 2769 2880 2994 2998 3144 3112 3029 3014 3009 3004 2872 2802 2743 2734 2752 2772 2672 2669 2667 2475 2899 2558 2846 3200 3451 3259 3147 3619 3618 3077 2688 2834 2641 2616 2484 2348 1990 886 1306 1730 1374 2072 1517 1486 1745 2226 2269 1249 1454 1282 1414 1108 904 1472 1458 1336 1209
1889 1909 2068 2068 2474 2551 2620 2581 2358 2263 2273 2204 2114 2170 2202 2277 2453 2460 2714 2874 2868 2882 2757 2724 2645 2614 2600 2633 2674 2806 2932 2974 2980 2956 2949 2920 2918 2864 2775 2798 2820 2799 2650 2726 2836 2832 2920 2931 2971 2774 2877 2871 3052 3327 3208 2947 3426 2978 2838 2708 2498 2449 2566 2345 2309 1184 1356 1402 1726 1848 1301 1572 1594 2568 2558 1288 1562 1378 1583 1590 1321 1090 1376 1440 1281
1893 2090 2140 2325 2658 2611 2589 2481 2220 2173 2073 2015 2084 2442 2574 2418 2462 2580 2706 2766 2743 2812 2882 2841 2878 2747 2706 2750 2770 2788 2842 2836 2820 2774 2706 2675 2759 2802 2868 2842 2778 2657 2786 3008 3061 3202 2965 2846 2823 3079 3114 3127 3035 2856 2971 3195 2922 2838 3008 2597 2647 2306 2061 1927 1887 1320 1169 1236 1443 2478 1553 1787 2255 2712 2364 1422 1528 1313 1567 1614 1436 1480 1325 1434 1327
2331 2141 2268 2358 2432 2768 2842 2632 2555 2365 2365 2307 2221 2368 2462 2407 2361 2442 2571 2654 2641 2737 2887 2907 2975 2964 2878 2907 2906 2803 2804 2726 2685 2717 2669 2698 2702 2586 2536 2361 2400 2336 2297 2489 2627 2552 2605 2790 2941 2975 3082 3188 3270 3318 3401 3369 3275 3268 2988 2958 2784 2356 2260 2062 1776 1819 1497 1309 1658 2170 2432 2085 2743 2903 2095 1664 1406 1394 1480 1530 1442 1399 1464 1407 1288
2506 2380 2374 2443 2417 2544 2779 2972 3026 2878 2692 2399 2478 2470 2379 2396 2392 2532 2798 2898 2835 2801 2984 3053 2849 2908 2907 2996 2883 2861 2972 2822 2756 2618 2658 2589 2364 2427 2536 2596 2639 2689 2362 2195 2387 2281 2636 2930 3195 3375 3562 3491 3490 3679 3873 3754 3634 3802 3764 2937 2881 2392 2262 2210 2040 1922 1738 1772 1393 2194 2540 2474 2968 2950 1978 1694 1385 1452 1628 1670 1602 1474 1621 1428 1539
2537 2474 2377 2885 2847 2658 2836 2711 2904 2860 2876 2921 2780 2584 2536 2584 2634 2714 2969 3150 3150 3166 3172 3135 3006 2929 2914 2958 3041 3001 2896 2822 2703 2647 2620 2624 2601 2473 2578 2546 2823 2832 2778 2820 2731 2726 2822 2979 3064 3202 3375 3536 3803 3968 3930 3910 3867 3293 3592 3766 3823 3073 2248 2093 2242 1954 1751 2026 2148 2321 2402 2748 3341 2810 1955 1742 1441 1529 1694 1760 1694 1564 1544 1542 1474
2425 2389 2320 2783 2788 2815 2880 2893 2898 2805 2946 2857 2800 2918 2767 2745 2842 2878 2847 2994 3150 3233 3227 3126 3116 3137 3192 3083 2998 3009 2834 2319 2743 2632 2554 2498 2532 2334 2297 2204 2307 2661 2650 2691 2847 2982 2990 3168 3203 3133 3227 3520 3481 3471 3587 3619 3760 3462 3211 3425 3752 3316 3045 2572 2080 2107 2235 1865 2002 2295 2071 2314 3352 2742 1927 1786 1490 1690 1748 1764 1703 1564 1497 1516 1406
2295 2456 2283 2706 2728 2847 2989 2865 2874 2886 2883 2745 2722 2844 2953 3127 3144 3112 3122 3052 3235 3175 3342 3245 3304 3287 3076 3141 3072 3048 2774 2552 2518 2295 2310 2456 2418 2798 2488 2622 2762 2827 2894 2858 2947 3098 3172 3249 3423 3431 3532 3460 3549 3572 3527 3496 3437 3406 3019 2922 2991 3086 3033 2700 2704 2494 2176 1842 2374 2250 2290 1880 3276 2945 2020 1949 1613 1805 1815 1750 1677 1612 1558 1428 1258
2382 2460 2136 2646 2688 2785 3164 2964 2982 2905 2654 2734 2762 2728 3025 3098 3144 3330 3284 3094 2964 3106 3171 3052 3122 3096 3034 2953 2753 2726 2384 2218 2126 2060 2343 2904 2530 2406 2466 2760 2990 3093 3097 3229 3238 3127 3146 3337 3562 3130 3138 3698 3669 3724 3720 3250 2963 3132 3141 2674 2868 2877 3107 3042 2741 2198 2027 1855 2412 2481 2176 2046 2981 3168 2208 1926 1795 1825 1862 1803 1682 1660 1597 1503 1293
2077 2148 2464 2656 2613 2758 2966 2955 2956 2948 2800 2772 2916 2921 3136 2923 2934 3087 3198 2844 2689 2750 2742 2866 2494 2890 3154 2950 2738 2928 2168 1972 1850 2420 2582 2389 2359 2390 2396 2345 2699 2961 2992 3006 3136 3133 3172 3206 3553 3571 3300 3029 3506 3456 3229 2948 2577 2554 2724 2799 2856 2901 2725 2490 2154 1994 2294 2095 2489 2323 2512 2328 2794 3080 2271 1871 1966 1892 1882 1880 1750 1706 1695 1603 1306
1622 1936 2159 2758 2454 2712 2772 2697 2802 3025 3125 2776 2941 3016 2821 2555 2775 2971 2868 3171 3300 3097 2707 3112 2792 2812 2874 2794 2884 2634 2227 1999 1798 2322 1798 2174 1688 2028 2427 2605 3031 3196 2727 2770 2842 3067 3298 3339 3520 3622 3697 3573 3222 3055 2853 2575 1706 1401 1433 1168 1808 2314 2514 2274 1810 1861 1944 2403 2748 3061 2820 2559 2747 2848 1621 1992 2010 1919 1960 1739 1708 1722 1683 1658 1420
1812 1922 1878 2885 2469 2565 2436 2387 2578 3001 3253 3110 3108 2436 2761 2411 2437 2709 2595 2749 2698 2970 2642 2870 2856 2904 3093 2812 3026 2647 2346 2002 2462 2410 2551 2453 2317 2677 2748 3019 2859 2727 2692 2416 2361 2618 2794 2620 2536 2932 2904 2678 2600 2547 2390 1424 624 650 833 806 922 1528 1966 2146 1858 1557 1683 1756 1579 2297 2488 1993 2557 2949 1917 1896 1721 1960 1898 1791 1667 1700 1690 1634 1530
2505 2281 2320 2561 2758 2382 2123 2128 2414 2920 3247 3423 3302 2918 2347 2237 2316 2797 2696 2886 2896 3021 2750 2664 2700 2933 3016 3017 3072 2653 2280 2008 2179 2576 2658 2270 1589 1708 2398 2353 1950 1540 1516 820 1508 1983 1814 1295 792 1504 2303 1941 1779 1776 1255 658 663 739 766 955 913 825 1014 1518 1764 1767 1479 1288 958 1437 2358 2272 1821 2508 2086 1826 1807 1584 1647 1822 1778 1750 1724 1642 1668
2507 2272 2529 2673 2916 2296 2019 2136 2635 3043 3265 3305 3464 3207 3174 2665 2806 3128 2938 3043 2979 3054 2838 2567 2567 2659 2804 2869 2903 2638 2060 1791 1907 2246 2404 2052 1533 1230 1377 1487 695 313 877 281 254 234 405 392 408 888 1256 491 577 755 810 910 1171 1238 1056 974 910 807 645 772 994 1164 1414 1332 926 1200 1456 2217 1972 2189 2453 2034 2026 1755 1412 1700 1860 1829 1796 1648 1640
2290 2416 2664 2832 3174 2499 2100 2281 2777 3270 3516 3472 3437 3252 3438 3048 3261 3289 2995 3005 2983 3013 2711 2408 2302 2432 2406 2361 2400 2194 1684 1411 1562 1738 1880 1783 1642 1426 1298 1119 628 488 583 399 404 320 322 374 621 661 460 370 360 414 490 664 809 709 643 560 599 836 1048 918 678 609 660 791 988 1406 1964 2307 2624 2434 2327 2264 2163 1772 1703 1456 1898 1927 1820 1670 1597
2328 2501 2898 3014 3237 2809 2313 2476 2926 3149 3426 3580 3409 3267 3313 3376 3761 3662 3265 2953 2918 2863 2709 2322 2100 2108 2208 2146 2217 1706 1357 1132 1289 1426 1555 1593 1590 1486 1237 865 832 883 604 483 480 530 525 530 658 580 362 407 309 402 456 526 543 492 366 421 501 722 1059 1103 1046 784 596 605 563 726 1239 2258 3280 2645 2530 2310 1899 2128 1929 1866 1504 1902 1901 1819 1723
2409 2566 2916 3138 3226 3072 2796 2869 2910 3024 3026 3142 3186 3237 3261 3518 3944 3561 3405 3572 3061 2824 2866 2744 2320 2096 2170 1969 2434 1465 1206 1092 1198 1404 1585 1573 1531 1458 873 871 966 1049 969 814 643 631 644 646 598 548 444 337 434 423 355 430 464 531 658 647 636 845 1012 1040 1084 1066 793 640 622 662 1082 1764 3029 3210 2722 2538 2368 2396 2313 2082 1711 1480 1480 1892 1708
2318 2584 2880 3154 3266 3197 3128 3148 2970 2948 2923 2933 3051 3248 3274 3226 3626 3699 3330 3781 3348 3061 3123 3165 2908 2389 2104 1906 1765 1410 1218 1116 1248 1557 1600 1610 1486 1261 808 775 872 1046 1148 998 754 642 666 712 710 639 496 368 446 486 562 456 541 712 883 878 822 922 1066 1118 1093 1127 980 748 769 744 1019 1582 2250 3118 2988 2794 2682 2406 2237 2354 2100 1887 1701 1391 1814
2393 2620 2830 3055 3302 3194 3132 3210 3080 3280 3043 2954 2997 3223 3310 3242 3218 3858 3532 3546 3488 3269 3248 3335 3392 3250 2620 2353 2308 2087 1844 1553 1411 1494 1608 1646 1416 1074 737 651 777 1003 1099 922 740 763 677 753 849 656 532 453 414 419 597 708 788 849 988 1055 1021 1098 1188 1193 1105 1048 1164 1142 977 886 902 1685 2150 1802 2157 2548 2341 2452 2681 2453 2097 2324 2051 1542 1393
2550 2609 2676 2864 3164 3240 3114 3238 3325 3218 3189 3037 3062 3257 3231 3150 3102 3633 3999 3502 3454 3340 3334 3386 3400 3289 3343 3264 3032 2960 2532 2004 1696 1580 1571 1622 1434 1135 717 734 756 980 1006 840 824 817 797 804 836 836 842 788 695 726 882 924 892 834 865 1185 1228 1194 1112 1028 953 848 852 1067 1123 1101 1520 2223 1697 1715 2163 2360 2354 2215 2278 2348 2525 2370 2153 1966 1597
2632 2562 2614 2873 3059 3238 3184 3324 3421 3250 2983 2839 2959 3294 3245 3228 3148 3415 4037 3973 3519 3322 3049 2860 2962 3224 2777 3052 3314 3138 2834 2107 1743 1529 1498 1529 1419 1128 954 954 890 992 816 896 835 804 782 822 939 947 857 720 550 288 217 414 546 686 882 1126 1030 823 721 716 735 718 714 820 1001 1445 2130 2328 1949 1838 1724 1988 2140 2172 2236 2315 2084 2217 2355 2143 2003
2582 2499 2621 2852 2934 3169 3156 3336 3345 3142 3094 2914 2918 3074 3033 3014 3249 3462 3886 3930 3640 2716 2580 2838 2745 2631 2468 2690 3276 3282 2767 2115 1650 1491 1514 1566 1443 1125 1142 1080 1067 1101 923 830 823 726 834 828 800 652 426 52 0 0 0 0 31 154 138 119 74 96 151 301 486 646 736 844 962 1169 1776 2004 1873 1896 1910 1821 1829 1921 1846 1841 1874 2028 2627 2337 2081
2483 2572 2627 2768 2847 2962 3128 3036 3112 2991 2886 2646 2704 2818 2886 3046 3076 3185 3572 3462 2812 2287 2475 2856 2986 2600 2410 2602 2956 3039 2480 1860 1599 1574 1614 1540 1333 1206 1182 1022 1049 1024 853 887 755 626 516 424 229 11 0 0 0 0 1 0 4 42 55 62 12 7 60 223 434 701 846 961 1089 1188 1589 2142 1854 1674 1794 1840 1737 1706 1843 1598 1675 1561 1815 2479 2593
2382 2508 2621 2662 2826 2854 3304 2815 3028 2629 2658 2658 2615 2579 2894 2812 3131 3832 3182 2686 2657 2432 2312 1888 2360 2728 2603 2296 2253 2172 1899 1805 1796 1765 1646 1442 1355 1285 1105 886 898 984 903 861 800 546 421 0 5 0 0 0 2 0 0 0 0 8 14 7 6 73 116 284 530 693 849 996 1114 1164 1237 1864 2058 1775 1875 1941 1826 1318 1196 1468 1656 1612 1814 2232 2235
2248 2418 2658 2724 2798 2854 3342 2768 2936 2896 2789 2995 2898 2934 3017 3169 3222 3867 4019 3433 2908 2749 2590 2249 2441 2992 3270 3048 2323 1962 1847 1662 1687 1766 1665 1571 1434 1091 844 962 1126 1146 1092 913 818 702 478 303 164 400 19 0 0 0 0 0 0 0 0 14 24 106 73 41 38 87 272 435 572 714 886 1086 1824 2287 1714 1757 1652 1496 1706 1665 1689 1945 2024 2048 2150
2098 2440 2658 2712 2794 2895 2970 2965 3034 3133 2846 3054 3152 3275 3170 2910 2546 2781 3274 3504 3256 3022 2870 2480 1807 2549 3108 2728 2313 1875 1751 1825 1787 1582 1582 1304 944 616 1028 1202 1250 1160 1056 983 1029 956 668 527 418 397 90 202 0 0 0 0 0 363 431 449 429 413 385 66 31 387 191 233 272 355 452 664 1059 1683 2198 2255 2040 1888 1778 1862 1752 1698 1692 2099 2100
2114 2442 2582 2625 2666 2778 2875 2811 2639 2677 2745 2856 2922 2818 2624 2404 2300 2698 3058 3224 3238 3489 3392 2840 2455 2400 1887 2182 2312 2282 1708 1692 1682 1631 1245 601 605 855 1130 1325 1318 1296 1220 1152 1161 1065 804 622 587 671 631 609 563 501 436 420 454 490 573 586 530 472 408 124 214 118 88 140 241 537 540 578 670 920 1259 1924 1838 1816 1697 1510 1363 1434 1878 2105 2140
2083 2394 2477 2480 2474 2510 2595 2688 2732 2698 2785 2820 2855 2753 2532 2268 2146 2092 2713 3471 3413 3257 2931 2498 2155 1976 1819 1614 1394 1264 1569 1720 1648 987 580 667 822 1068 1244 1388 1437 1458 1494 1436 1317 1100 910 918 996 934 856 840 793 790 721 634 640 692 738 664 542 438 145 194 174 160 238 179 164 264 238 497 670 1008 1361 1435 1887 1651 1737 1688 1770 1947 1993 2092 1992
1995 2282 2380 2408 2400 2440 2565 2641 2698 2696 2795 2818 2730 2616 2427 2156 2080 2077 2048 2449 2626 2540 2376 2172 1784 1760 1690 1584 1146 1022 1262 1118 808 730 672 844 999 1096 1269 1431 1478 1475 1504 1544 1502 1383 1249 993 888 1006 851 704 662 758 921 871 783 739 604 502 474 150 174 236 134 143 192 174 160 201 372 623 758 1132 1565 1713 1646 1496 1516 1520 1312 1049 1053 1492 1687
1952 2196 2326 2390 2376 2378 2578 2540 2658 2664 2660 2634 2589 2500 2335 1980 1923 1997 1982 2064 2182 2086 1962 1606 1788 1769 1710 1623 1278 1136 1076 807 730 689 764 922 1001 1109 1199 1320 1438 1328 1240 1376 1472 1341 1200 1162 1052 866 875 730 818 878 1038 1053 806 754 617 588 472 23 62 402 151 156 112 108 460 288 444 572 590 944 1302 1170 1214 1255 1228 1132 1096 1146 1164 1149 1231
1919 2104 2277 2294 2286 2299 2702 2671 2723 2644 2601 2537 2570 2492 2322 1964 1858 1890 1922 1868 1755 1618 1402 1433 1762 1676 1911 1940 1788 1237 780 666 712 758 944 1067 1102 1200 1233 1337 1531 1528 1308 1017 945 892 823 959 964 896 945 974 1014 1080 1051 1115 961 841 789 541 24 98 113 508 211 145 104 80 508 143 272 103 108 284 728 906 1171 1240 1138 1138 1220 1186 1025 955 1150
1910 2006 2169 2154 2209 2238 2698 3074 3071 2768 2743 2718 2878 2540 2355 2126 1977 2034 1965 1649 1505 2048 1544 1751 2074 2067 2088 2042 2017 1620 823 628 680 846 1043 1186 1265 1405 1630 1627 1558 1473 1453 1319 1208 1166 978 1024 1142 1132 1092 1072 1170 1021 885 876 975 968 760 441 321 296 246 327 110 153 87 136 436 173 228 36 2 36 128 353 747 983 1067 1172 1114 1082 1063 876 794
1924 1944 2067 2082 2130 2222 2480 3186 3507 3176 2980 3175 3279 2715 2578 2369 2288 2282 2065 1985 2016 2062 2026 1978 2235 2402 2372 2116 2106 1718 1198 634 733 884 1070 1244 1396 1658 1873 1999 1776 1690 1662 1518 1370 1262 1173 1167 1062 1147 1170 1188 1054 871 816 1043 1107 1035 940 700 286 218 338 332 237 44 49 162 285 168 286 1 0 18 25 76 89 149 414 530 782 810 764 768 776
1853 1868 1931 1972 2097 2250 2428 2943 3568 3656 3356 3311 3414 3110 2747 2542 2452 2326 2090 2079 2140 2052 1866 1510 1720 2420 2512 2140 1996 1654 1468 952 821 982 1363 1635 1802 1944 2029 1756 1644 1543 1588 1486 1208 1209 1096 1068 1174 1232 1164 1040 774 749 826 968 1176 1326 1136 805 426 224 371 453 189 9 0 103 189 79 94 0 0 0 0 2 0 0 64 41 98 305 723 805 799
1792 1801 1931 2100 2198 2274 2460 2765 3213 3654 3780 3652 3654 3545 3147 3019 2775 2396 2133 1938 1759 2072 1933 1108 796 1488 1735 2131 2074 1848 1686 1390 1212 1430 1830 1791 1458 1347 1125 994 952 1100 1470 1339 1195 1269 922 1010 1075 1041 995 816 741 688 615 856 974 926 915 978 845 777 728 633 202 169 0 0 2 0 0 0 0 0 0 0 0 0 0 0 0 6 60 307 533
1834 1863 2074 2370 2567 2561 2632 2762 3048 3415 3772 4037 4162 4046 3779 3529 2984 2475 2249 2010 1611 1849 1671 837 467 666 816 1159 1325 1143 673 659 839 866 843 719 806 769 663 764 966 1230 1385 1096 1036 1050 951 972 1041 951 1014 1019 1001 919 888 858 669 623 785 872 834 748 720 745 244 224 57 1 0 0 0 0 0 0 0 0 0 0 0 0 0 0 8 58 154
2000 1999 2136 2402 2729 2901 2902 2924 3047 3380 3655 3903 4129 4163 3895 3124 2579 2487 2304 2067 1799 1535 1197 457 78 94 98 147 385 257 80 62 94 403 548 582 557 101 86 274 607 779 863 339 521 689 934 864 921 853 990 974 1080 1168 1006 720 454 489 430 560 896 831 706 526 423 292 110 0 0 0 0 0 0 0 0 0 0 0 0 0 0 0 5 22 46
2253 2197 2214 2350 2586 2883 3040 3088 3179 3306 3506 3732 3780 3583 3157 2636 2538 2493 2159 1849 1675 1436 913 154 4 0 0 1 32 44 58 109 98 51 141 250 134 146 46 141 282 571 722 88 160 428 432 566 722 806 858 757 1068 1187 948 790 668 584 672 712 878 607 740 627 435 361 333 109 3 0 0 0 0 0 0 0 0 0 0 0 0 0 0 0 0
2499 2419 2392 2457 2524 2668 2830 2971 3070 3140 3268 3174 2885 2866 2799 2718 2671 2402 1374 866 1056 804 415 54 0 0 0 1 1 3 1 1 10 20 38 57 50 174 61 98 150 1060 716 30 187 229 344 422 396 459 585 498 696 1042 931 953 968 824 771 846 942 762 513 49 17 212 134 72 2 1 0 0 0 0 0 0 0 0 0 0 0 0 0 0 0
Wind_Speed
17 14 17 15 15 14 13 12 12 14 15 14 15 15 14 16 14 14 14 12 11 13 13 14 13 13 14 15 15 14 14 14 14 13 13 13 12 12 11 11 11 11 11 10 10 9 9 9 9 9 9 9 9 8 8 7 7 6 4 4 5 4 2 2 2 5 4 6 5 4 5 6 6 8 10 10 9 8 7 4 4 8 10 7 3
15 16 17 18 13 12 11 12 12 13 15 15 16 16 17 16 14 15 14 14 14 15 16 16 17 16 16 15 15 15 15 15 15 14 13 13 13 12 12 12 12 13 13 12 12 11 10 9 8 8 8 9 9 8 8 8 8 7 6 4 3 3 2 1 0 3 5 6 6 5 4 4 6 8 8 9 9 8 8 5 2 8 11 5 3
14 15 15 16 12 11 11 12 13 14 16 15 16 16 16 18 18 18 18 18 18 18 17 17 18 18 18 17 16 15 15 15 15 15 14 14 13 13 13 13 13 13 13 13 12 11 10 9 8 7 7 8 9 7 6 7 8 8 7 6 3 3 4 1 2 2 3 5 5 7 9 9 6 6 7 8 9 8 7 5 3 3 7 3 3
14 17 17 13 10 9 10 14 16 16 15 14 15 16 16 16 17 18 19 19 19 19 18 18 18 18 18 16 16 15 15 15 15 15 15 15 15 14 13 13 14 14 15 14 13 12 10 10 10 9 8 7 7 6 4 5 7 8 7 7 7 7 3 1 3 2 2 3 3 5 8 9 10 10 6 7 9 8 7 5 3 2 2 2 1
12 16 15 12 9 8 9 12 14 14 14 15 15 13 11 14 15 19 20 20 20 20 20 20 19 18 17 16 15 15 16 16 15 16 16 16 15 15 14 15 15 15 15 15 13 12 11 9 8 8 7 7 6 5 4 4 6 6 6 6 6 9 5 2 1 3 3 3 3 4 6 7 7 10 6 7 9 8 7 6 4 2 2 0 1
9 12 12 9 9 8 8 10 10 13 13 13 13 11 11 15 18 19 18 19 20 21 21 20 20 19 18 17 17 17 17 17 16 16 16 16 16 16 15 15 15 15 15 15 14 12 11 9 7 7 7 7 9 7 6 5 5 5 4 4 4 12 9 3 2 2 6 7 6 7 5 6 6 8 4 5 8 8 8 5 4 3 2 1 0
7 13 12 10 9 8 7 7 10 10 11 12 10 13 16 19 20 19 20 21 22 22 22 21 20 20 19 18 18 18 17 17 17 16 16 16 16 16 16 16 15 15 14 14 14 13 13 11 10 8 7 7 7 8 7 7 6 7 5 3 5 10 12 4 2 2 3 5 9 9 7 6 6 7 6 6 7 8 7 6 5 4 3 2 1
9 11 10 9 9 8 8 11 13 15 15 16 18 20 20 19 20 21 22 23 23 24 23 22 21 21 21 20 19 19 18 17 17 17 17 16 16 16 15 15 15 15 14 14 14 13 13 13 12 11 9 8 7 7 8 8 8 8 6 5 8 11 12 8 1 6 2 3 9 11 9 7 6 6 9 9 9 9 8 7 5 5 3 2 2
8 9 9 9 7 11 15 14 14 15 16 21 23 22 21 22 22 21 22 23 23 23 22 21 21 21 21 21 21 20 19 19 18 17 17 16 15 15 15 15 15 14 14 14 14 14 13 13 12 12 11 9 7 7 8 8 9 9 9 7 9 10 12 14 5 11 6 3 6 10 10 9 7 7 9 10 10 10 9 8 7 6 5 4 3
8 9 10 10 7 6 6 9 9 11 14 16 16 18 23 24 23 22 22 22 22 22 21 21 22 21 21 21 21 20 20 19 18 18 17 16 16 16 16 16 16 15 14 14 13 13 12 11 10 11 11 10 8 6 5 6 8 10 10 9 7 8 11 14 10 13 8 3 5 8 10 12 8 8 9 11 10 10 10 10 9 7 6 5 4
6 9 10 9 5 7 8 10 11 12 15 15 17 18 18 22 23 23 23 23 22 22 22 22 22 22 22 22 21 20 19 19 18 18 18 18 18 18 18 17 17 15 14 13 12 11 10 9 8 8 7 8 8 5 5 3 6 7 9 9 7 8 10 13 11 8 6 2 2 4 7 13 7 7 9 12 11 11 11 10 10 10 8 6 6
5 9 9 7 6 9 11 12 12 12 13 14 17 18 18 21 23 23 23 23 23 22 22 22 22 21 20 20 20 20 19 19 18 19 19 19 19 18 18 16 15 15 13 12 11 9 8 8 8 7 6 5 5 6 5 5 1 2 5 6 6 5 8 13 10 8 4 2 2 3 7 7 9 7 9 13 12 12 12 11 10 10 9 7 6
5 7 6 6 7 9 11 13 15 17 18 18 18 19 21 23 23 22 22 22 22 21 22 21 21 20 19 19 19 19 19 18 18 17 17 17 17 16 14 13 13 12 12 12 11 10 10 8 7 5 4 3 3 4 6 6 4 2 4 8 6 6 6 10 5 7 6 3 1 3 7 8 9 10 10 14 13 12 12 12 11 10 10 9 8
4 6 6 6 6 10 13 15 17 21 23 23 23 24 24 23 22 22 21 21 21 21 22 22 21 20 20 20 20 19 18 17 16 15 15 14 13 13 12 11 11 11 11 12 12 11 10 9 6 4 2 2 3 4 6 6 5 1 3 4 5 7 4 7 5 4 5 5 2 4 7 7 8 11 11 14 15 14 13 12 12 12 11 10 9
3 5 6 6 6 7 14 16 18 19 20 22 23 23 22 22 21 21 21 21 22 22 22 22 22 22 22 21 21 20 19 17 16 15 14 14 13 12 12 11 10 10 11 11 11 10 10 9 8 4 1 2 3 4 5 6 4 2 2 1 5 4 2 3 3 3 3 3 3 4 6 5 7 9 11 14 15 14 14 13 12 12 11 10 10
4 3 4 4 6 7 8 14 17 18 18 20 20 21 23 23 23 23 22 22 23 24 24 23 23 23 23 23 21 19 18 17 16 15 14 13 13 12 12 11 10 10 11 12 11 9 10 8 7 6 4 2 3 3 3 3 3 2 2 1 5 8 4 2 3 2 3 4 4 2 2 3 7 7 11 12 13 14 14 14 12 12 11 10 9
4 3 3 3 5 5 7 7 10 16 16 18 19 21 22 23 23 23 22 23 24 24 24 23 23 23 23 22 20 19 17 16 15 14 14 13 12 12 12 12 11 10 11 12 10 8 10 8 6 6 6 4 2 4 5 3 1 1 3 1 1 5 9 3 3 1 3 5 4 4 5 3 6 9 11 11 11 12 13 14 13 12 11 10 9
2 2 2 3 3 5 5 5 6 7 7 13 18 20 21 22 23 22 21 22 23 23 22 21 21 22 21 21 20 19 17 16 15 14 12 12 12 10 9 10 9 10 13 11 9 9 9 8 7 7 7 6 3 3 4 5 5 4 2 1 1 2 5 4 4 3 5 6 6 6 8 5 8 11 9 10 10 11 12 13 13 12 12 11 10
1 1 0 3 5 5 5 4 5 5 7 8 9 16 21 21 23 22 21 20 21 20 20 19 20 21 21 21 21 20 18 15 14 12 10 12 13 10 6 5 7 10 13 11 9 9 10 9 9 9 8 7 5 4 4 5 6 6 6 3 2 2 3 10 6 3 4 7 9 9 8 5 9 11 7 9 11 11 12 12 13 13 12 12 11
2 1 2 5 6 6 5 5 5 6 7 8 10 12 17 21 22 21 20 19 18 19 19 19 19 20 20 20 20 18 16 11 12 8 11 13 12 9 7 7 8 10 11 11 9 8 9 10 10 11 10 8 7 6 5 4 4 7 8 8 7 6 8 10 8 4 5 6 10 12 9 5 5 8 6 10 12 12 12 12 12 13 12 11 11
4 4 6 7 7 8 7 6 7 8 8 10 12 13 15 19 18 18 18 18 17 18 19 19 17 17 18 18 16 10 8 6 5 4 9 7 10 11 10 9 9 10 10 9 8 8 9 11 11 12 11 9 7 6 5 4 4 6 8 10 9 9 9 9 9 7 7 7 8 11 10 8 2 6 8 11 13 13 13 13 12 12 12 12 11
8 9 9 9 8 9 10 9 10 12 11 12 13 13 12 16 12 12 12 13 15 16 14 10 14 9 17 13 9 9 7 7 7 10 8 9 11 14 12 10 9 9 9 8 8 7 8 9 9 9 8 5 6 2 5 8 10 10 11 16 14 10 7 6 8 7 6 7 7 9 9 9 5 4 10 10 12 12 12 13 13 12 12 12 11
9 10 11 11 11 10 10 11 13 13 13 15 15 11 9 8 10 12 12 13 12 13 10 10 8 9 8 9 9 7 9 9 9 10 10 13 11 12 12 10 9 10 8 7 7 5 5 6 6 5 4 1 5 7 6 6 7 9 11 12 12 10 7 6 5 7 5 6 9 7 7 9 8 6 10 10 10 10 11 10 11 11 11 11 11
10 10 10 11 11 9 11 12 14 14 14 15 14 6 9 6 9 11 12 12 12 10 10 8 7 8 8 8 8 7 9 11 12 14 13 8 7 9 11 11 9 8 6 5 3 2 1 3 4 3 5 8 8 8 7 6 5 6 8 10 11 10 9 8 7 6 6 6 9 7 7 10 9 7 8 10 8 7 9 9 9 9 10 10 10
10 9 10 10 9 9 11 13 14 14 14 14 13 9 10 10 11 11 11 11 11 10 10 10 9 8 7 8 8 8 9 10 9 7 7 7 6 6 6 7 7 8 6 7 7 6 5 4 3 3 4 5 6 7 6 5 5 6 7 8 10 11 10 10 9 8 7 7 8 5 6 7 9 6 6 10 8 5 7 10 8 8 8 9 9
8 9 10 10 9 9 12 12 13 13 13 13 12 12 11 11 11 11 11 10 11 11 11 12 11 10 9 8 8 8 9 9 9 10 9 9 9 9 9 9 9 10 9 10 8 8 7 6 5 4 4 4 5 6 6 5 5 5 6 7 9 10 9 9 9 9 9 9 8 3 3 7 8 9 6 8 8 5 4 7 7 6 7 7 8
11 11 10 10 9 10 12 10 12 12 13 11 9 9 9 8 9 9 10 10 10 11 12 13 12 11 11 10 10 8 9 9 9 10 11 10 12 11 11 10 11 11 10 11 10 10 10 9 8 8 7 7 7 7 7 7 7 6 6 7 7 8 8 8 8 8 8 9 7 2 2 4 5 10 5 6 7 5 4 3 4 4 6 7 7
12 13 11 10 9 11 11 9 10 11 11 10 9 9 8 8 10 11 8 10 11 12 13 14 13 13 12 11 9 9 9 10 10 10 11 10 12 12 11 12 13 12 11 11 10 10 10 10 9 10 9 9 9 8 8 8 7 7 5 5 6 5 5 5 6 6 6 6 7 4 1 2 3 5 6 6 6 5 3 1 1 3 5 6 7
14 15 13 12 12 12 11 9 10 10 9 9 10 8 8 9 9 9 10 12 12 13 14 14 15 15 14 13 11 11 10 11 11 11 9 11 11 11 12 13 13 12 12 11 11 10 9 9 10 11 10 10 10 11 10 10 9 9 9 6 4 3 3 2 3 4 4 3 6 7 2 1 2 3 5 5 5 4 3 2 1 2 3 5 6
17 16 13 13 12 12 11 10 10 9 8 9 9 8 9 11 12 12 11 13 13 13 12 13 13 13 14 14 14 13 14 14 14 12 12 13 13 13 13 15 15 13 11 11 11 11 11 11 11 12 13 13 12 13 13 12 10 9 10 10 7 5 4 3 4 7 7 6 5 7 5 2 1 2 4 5 3 3 1 1 1 2 2 3 5
16 15 14 12 12 10 10 8 7 8 6 8 8 10 11 12 14 13 11 11 10 9 10 8 8 10 12 13 14 14 13 14 15 15 14 14 14 15 16 15 15 13 13 13 12 13 14 15 14 14 13 13 14 14 13 12 12 11 11 11 11 8 6 6 7 8 9 8 8 8 9 7 8 8 6 5 6 3 2 1 0 2 2 2 4
13 15 13 10 10 10 8 6 7 8 7 8 9 10 12 13 13 12 12 10 7 8 11 11 10 9 10 14 14 14 14 15 15 15 16 16 16 16 16 16 16 14 14 14 14 13 13 13 13 13 13 13 13 12 13 13 12 12 12 12 12 11 10 8 8 8 8 8 10 11 14 18 13 7 6 7 9 9 7 3 3 2 2 1 1
10 12 10 7 9 8 6 6 7 7 9 9 9 10 10 11 11 11 11 8 5 6 11 12 11 11 12 14 14 14 14 15 15 15 15 15 16 16 16 16 14 14 14 15 14 13 13 12 12 12 12 12 11 11 12 13 12 13 13 13 12 11 11 11 10 10 9 9 10 14 18 20 14 10 7 8 10 10 11 11 7 3 2 2 2
7 8 7 7 7 6 5 4 6 8 10 9 8 8 9 10 10 10 10 7 6 7 9 12 13 13 13 14 13 13 13 13 13 14 13 14 14 15 16 16 14 14 15 15 14 14 14 14 13 12 12 nan nan nan nan nan nan 14 14 13 nan nan 11 10 11 11 10 10 11 15 20 22 15 14 15 12 10 12 13 14 15 11 3 2 2
4 6 8 8 7 6 5 5 8 10 9 9 8 8 8 8 8 9 9 8 11 9 7 15 13 13 12 12 12 12 12 12 12 12 12 11 13 14 15 15 15 15 16 16 16 15 15 15 15 nan nan nan nan nan nan nan nan nan nan nan nan nan nan 13 12 12 11 11 12 14 20 22 19 13 14 18 15 12 10 8 5 9 10 2 2
6 7 7 6 7 7 7 8 10 11 11 10 9 9 8 8 7 7 8 11 11 10 13 13 13 12 11 10 10 11 11 11 10 6 7 9 12 13 14 12 13 14 15 16 16 16 15 nan nan nan nan nan nan nan nan nan nan nan nan nan nan nan 16 16 15 14 14 13 12 12 18 21 20 15 11 18 18 16 10 10 6 5 12 9 4
6 7 7 7 8 8 9 9 11 13 11 10 8 8 9 9 8 7 9 9 9 10 9 7 7 8 7 5 5 6 6 5 3 3 4 7 12 13 10 11 12 13 14 14 15 16 17 16 16 18 nan nan nan nan nan nan nan nan nan nan nan 18 nan nan nan nan 16 15 13 12 13 17 20 16 16 17 16 16 14 8 8 8 6 10 10
6 8 9 9 10 9 9 9 10 11 10 9 9 10 10 10 8 7 7 7 8 6 6 6 6 4 4 5 6 1 6 7 5 3 4 11 9 9 10 11 12 14 14 14 15 15 15 17 16 17 nan 18 nan nan nan nan nan 17 18 20 20 20 20 nan nan 19 19 18 17 15 13 14 17 18 18 21 21 18 18 15 10 9 7 8 9
6 8 8 8 7 8 8 9 9 8 8 8 7 7 7 5 4 4 4 4 3 4 6 8 8 9 7 7 8 6 8 10 9 10 12 12 12 11 12 12 14 15 15 15 15 15 16 17 17 15 17 18 18 17 17 17 16 17 18 19 21 21 21 21 20 20 nan 21 20 17 15 14 16 18 19 21 24 23 21 22 21 22 22 11 10
4 5 7 7 7 7 7 7 8 8 6 6 6 6 6 7 7 4 4 4 4 6 7 7 7 10 10 9 11 13 13 14 15 15 15 14 12 12 12 13 14 14 14 14 15 16 15 15 15 16 14 15 17 17 18 18 18 18 18 19 20 21 20 21 21 21 21 22 20 17 15 14 14 15 18 19 22 24 24 25 24 23 27 24 13
4 5 6 6 6 7 6 8 7 7 7 7 7 7 6 4 3 6 7 7 7 5 6 6 7 9 11 11 13 14 15 16 16 13 13 13 13 13 13 13 14 14 15 15 14 14 17 18 17 16 16 14 14 19 19 21 19 19 21 22 19 21 21 21 21 20 21 22 22 19 17 15 13 14 17 21 25 28 29 27 26 26 26 24 22
4 5 6 6 4 4 6 7 5 7 8 9 8 6 5 7 7 9 6 7 7 8 6 7 10 10 11 12 12 13 14 14 13 14 14 15 15 15 15 14 15 15 15 15 15 15 16 16 17 15 19 17 15 18 20 24 21 23 21 19 21 nan nan 23 22 20 19 20 22 21 19 17 15 15 17 20 23 24 25 26 27 27 26 25 25
8 7 5 4 2 3 4 4 5 6 6 7 6 6 5 5 7 6 9 6 6 7 9 11 13 13 14 14 14 15 15 15 15 17 17 17 17 17 16 16 16 16 16 16 16 16 17 17 18 19 17 21 19 18 19 24 21 23 23 25 nan nan 19 22 21 21 21 nan 21 21 20 19 17 17 18 21 23 23 23 23 25 28 27 23 24
7 6 5 4 2 2 3 4 5 5 5 6 7 7 8 6 6 9 8 10 10 11 12 14 15 16 17 17 17 17 18 18 19 20 19 19 19 19 19 19 19 19 19 17 18 17 17 17 19 20 21 18 20 19 20 22 23 23 21 25 25 24 23 24 21 19 nan 21 22 20 21 nan nan nan 21 23 23 24 25 25 26 29 28 24 24
9 8 7 5 3 4 4 5 5 6 6 8 10 10 11 11 11 11 11 12 11 13 14 13 15 16 18 18 18 19 20 20 20 20 20 20 21 21 21 21 21 21 20 20 19 19 19 20 21 22 22 22 21 21 20 21 23 24 25 25 25 25 26 26 25 nan nan 22 22 21 21 nan nan nan nan nan nan 25 26 27 27 28 29 28 28
11 9 8 7 5 5 6 6 5 7 8 10 12 14 13 15 14 14 14 12 13 15 17 16 17 18 19 19 19 20 21 20 21 22 22 22 23 23 23 23 23 23 23 22 21 20 19 20 21 24 23 24 25 23 21 21 23 22 26 26 27 27 25 25 27 nan nan 26 26 nan nan nan nan nan nan nan nan nan nan nan nan 27 26 27 29
12 11 10 8 8 7 8 8 8 9 10 12 14 15 15 15 17 17 17 17 18 14 16 18 22 19 21 23 22 21 21 23 23 24 24 24 24 25 24 24 24 24 22 22 21 21 20 21 22 25 25 26 27 25 25 24 23 24 25 25 25 27 28 27 26 25 nan nan nan nan nan nan nan nan nan nan nan nan nan nan nan nan nan 27 28
13 14 12 11 10 10 11 10 11 12 13 15 17 17 17 17 17 17 18 19 20 20 20 22 22 24 25 24 25 23 23 23 24 24 25 26 27 27 27 26 25 24 23 24 22 21 21 21 23 23 24 26 28 26 25 25 25 24 26 27 26 27 29 28 28 27 nan nan nan nan nan nan nan nan nan nan nan nan nan nan nan nan nan nan 28
15 15 14 14 14 14 14 14 14 16 17 19 19 19 19 20 20 21 20 19 20 23 24 24 nan nan nan 25 26 25 nan nan nan 27 27 28 29 29 nan 27 26 25 24 24 23 22 24 25 25 26 26 26 28 27 28 27 27 26 26 26 27 29 29 29 30 29 27 nan nan nan nan nan nan nan nan nan nan nan nan nan nan nan nan nan nan
17 17 16 16 17 17 17 18 17 19 20 20 21 21 21 22 23 23 25 24 24 25 27 29 nan nan nan nan nan nan nan 24 nan nan 28 30 30 29 nan 28 26 25 24 nan 26 26 26 26 26 27 28 28 27 29 28 28 29 28 28 28 28 28 29 29 29 30 28 28 nan nan nan nan nan nan nan nan nan nan nan nan nan nan nan nan nan
18 19 18 18 19 19 19 19 19 21 22 22 23 23 23 24 25 27 29 30 29 30 31 nan nan nan nan nan nan nan nan nan nan nan nan nan nan 28 nan nan 25 24 24 nan 25 26 26 28 29 29 29 30 30 30 28 28 28 28 28 29 29 31 31 nan nan 31 31 nan nan nan nan nan nan nan nan nan nan nan nan nan nan nan nan nan nan
Wind_Direction
116 95 85 67 52 50 32 19 4 14 15 10 5 18 5 11 16 10 7 9 16 4 2 357 356 1 5 5 358 359 355 347 346 346 346 345 344 345 344 340 335 326 322 322 327 333 337 331 328 323 315 315 314 321 334 347 360 357 16 61 70 38 52 141 165 132 144 149 141 128 132 122 122 120 118 121 117 108 105 111 125 115 113 105 122
94 92 93 84 48 36 28 5 3 11 9 5 6 7 8 5 7 8 4 4 16 10 5 359 355 2 8 7 3 2 356 353 353 350 348 347 347 346 344 341 333 329 327 328 332 338 337 330 323 317 320 327 324 333 339 348 357 348 351 26 80 102 101 245 195 106 143 154 135 120 123 112 110 109 108 113 114 105 99 98 92 111 105 95 94
97 100 96 85 45 28 16 356 360 13 9 2 1 5 12 3 357 360 0 2 9 8 5 3 358 359 1 2 360 358 356 356 354 353 353 352 352 351 346 343 339 336 335 336 338 339 335 328 323 320 332 337 326 326 336 341 345 342 347 356 352 63 95 278 322 56 141 151 138 144 145 141 122 86 98 102 98 91 88 82 72 105 108 83 97
116 107 90 74 46 31 8 347 353 3 1 359 359 5 11 1 356 360 358 357 2 5 3 4 4 1 1 358 357 357 357 356 355 355 354 355 356 356 355 351 349 349 347 346 348 347 343 333 328 328 337 332 322 325 334 344 343 341 355 6 359 18 29 279 329 347 98 133 128 140 115 111 119 116 74 84 87 82 76 69 57 61 79 97 74
120 111 101 88 76 44 359 349 346 353 355 358 358 2 8 352 359 1 357 353 0 3 2 3 3 2 0 358 357 359 359 358 358 357 357 359 1 360 358 358 358 356 355 356 357 359 359 347 333 333 337 332 325 330 340 330 336 345 7 25 16 3 344 264 350 342 3 39 65 92 100 106 106 116 77 61 66 67 62 55 48 19 17 58 115
117 102 91 90 80 54 7 349 337 339 350 356 350 359 356 353 2 1 359 357 0 2 3 2 2 1 359 359 359 0 1 1 360 360 1 3 2 2 1 359 360 359 357 357 2 8 13 6 351 339 336 337 338 351 353 331 331 329 4 14 8 4 355 312 0 6 1 2 20 52 66 84 96 101 65 57 49 44 49 40 31 25 356 334 60
104 90 85 83 94 69 18 355 336 333 351 343 353 3 3 5 3 2 0 1 2 2 3 2 2 1 359 359 0 2 2 2 2 3 3 3 3 2 3 2 359 359 359 358 1 9 16 16 11 0 353 350 347 344 349 334 323 325 345 16 25 31 27 28 206 160 37 3 33 33 43 61 81 85 71 37 33 40 46 35 22 13 0 6 358
109 98 98 94 80 50 340 4 344 345 345 339 355 10 7 13 8 6 4 5 5 4 4 3 2 1 359 360 0 0 360 1 3 3 3 2 2 1 1 0 358 359 358 359 359 8 17 19 19 18 14 9 1 350 345 341 326 332 341 22 24 24 40 43 214 162 80 56 23 22 32 45 60 71 73 28 30 30 39 46 29 12 5 14 57
103 99 99 93 66 17 347 354 338 343 343 350 355 356 12 11 13 9 9 9 8 6 5 3 1 -0 0 359 359 359 358 359 1 2 1 1 359 358 358 357 356 358 358 357 1 8 17 22 23 22 23 26 27 4 358 349 335 334 341 13 19 28 27 25 70 149 169 114 46 25 21 30 43 56 69 28 30 29 31 46 44 20 10 23 56
114 106 105 98 74 2 11 339 332 342 350 356 7 12 5 7 10 10 10 10 8 6 5 2 1 1 0 360 359 357 356 357 359 -0 359 358 357 356 356 356 356 356 356 355 359 8 17 23 27 30 29 28 30 41 26 351 341 337 344 360 13 38 48 35 77 143 166 134 40 28 27 16 25 45 55 24 26 25 27 29 52 52 50 20 48
97 97 101 97 74 4 9 344 339 347 358 7 7 13 12 6 6 6 7 7 6 5 4 3 1 1 0 359 358 357 356 357 359 358 356 355 355 357 358 358 358 358 355 355 358 4 10 23 32 35 30 26 32 47 65 46 355 341 337 349 7 31 59 60 76 138 179 207 5 8 34 6 7 38 56 18 24 19 22 30 33 36 29 25 45
88 95 93 90 32 0 352 345 341 349 359 12 17 14 10 7 3 3 4 3 4 2 1 1 -0 359 358 358 357 357 357 357 358 357 354 353 356 358 359 360 360 359 358 357 0 6 9 15 27 34 42 43 46 52 66 103 99 7 326 329 357 17 53 74 99 117 160 270 333 345 357 6 351 23 33 17 15 17 17 25 34 31 29 23 33
76 85 90 71 63 10 353 351 347 352 359 5 8 13 9 3 1 2 2 3 3 1 360 359 358 357 356 357 356 355 353 353 354 352 350 350 352 354 355 355 356 359 359 357 360 7 12 15 14 29 37 45 63 67 59 79 95 253 329 319 353 346 61 87 98 114 142 154 74 322 325 351 349 4 27 14 13 14 12 21 18 29 28 19 18
89 76 74 67 67 5 357 359 358 359 360 360 359 2 359 358 359 1 3 5 4 3 1 358 357 356 356 355 352 348 345 345 345 342 340 341 342 343 343 346 350 356 0 359 359 1 6 17 20 16 10 48 78 92 92 77 80 204 287 319 338 341 30 103 100 120 133 142 120 325 322 327 334 354 15 13 9 13 10 11 14 16 22 18 14
14 55 64 76 52 40 3 4 0 355 350 347 347 351 353 356 359 3 4 6 7 5 2 358 358 358 357 352 348 342 338 337 335 333 332 335 336 335 334 338 346 354 356 3 358 358 7 19 28 32 50 101 105 110 113 121 120 175 198 334 328 294 1 130 136 146 150 157 140 325 319 294 324 343 4 7 11 7 3 10 7 11 13 15 13
318 4 52 79 70 41 31 9 358 352 347 346 347 350 355 358 2 5 7 9 9 8 5 4 2 1 357 352 347 340 336 332 330 331 332 335 334 332 336 342 349 356 2 358 1 6 15 22 33 42 49 97 139 138 133 133 140 170 147 120 315 319 341 21 170 173 203 193 194 212 263 256 321 323 351 2 14 4 358 359 5 3 4 10 8
295 332 346 33 60 62 37 27 9 353 352 351 352 354 358 2 5 6 8 11 11 10 7 5 4 360 354 349 344 339 338 338 339 340 337 339 335 337 346 354 358 2 5 5 2 17 24 31 47 58 64 81 131 153 165 165 169 287 288 243 235 344 341 338 229 222 223 233 220 227 214 237 302 306 341 358 10 1 355 353 357 0 359 0 5
257 314 321 3 46 46 46 39 24 21 25 4 -0 1 4 7 11 11 12 14 12 9 6 4 2 359 353 348 345 345 347 350 353 352 349 349 347 346 353 4 10 17 20 19 23 24 38 49 62 75 80 86 96 137 163 180 187 189 209 270 309 312 313 309 279 193 214 236 245 244 238 246 296 301 330 354 2 358 351 350 352 357 358 357 355
180 230 7 19 41 54 55 67 61 59 46 33 27 16 11 15 17 16 15 15 12 9 6 6 5 1 355 350 351 354 358 358 360 357 1 5 5 5 15 24 32 29 32 40 43 39 51 64 72 85 93 91 89 95 121 157 185 192 183 188 182 260 291 296 305 265 221 228 240 247 252 242 300 304 318 348 352 356 347 349 351 351 357 356 353
117 114 60 46 53 72 84 77 73 65 53 45 35 34 24 24 26 24 20 15 11 8 7 7 5 1 356 354 355 1 3 4 4 5 11 17 13 4 17 26 29 28 33 45 54 51 58 71 76 81 85 84 94 98 101 127 174 194 193 188 204 201 266 285 298 287 253 236 246 250 245 245 307 315 328 339 340 350 346 343 349 349 351 357 356
94 75 57 52 55 66 61 64 66 62 58 55 44 43 45 33 36 33 28 21 16 13 9 8 7 2 359 359 1 358 0 7 17 10 23 5 359 16 21 27 26 21 23 36 50 52 54 66 74 79 82 85 94 104 117 138 164 198 204 207 199 237 251 268 278 278 262 248 240 255 245 233 259 329 341 334 330 336 340 339 341 346 347 349 356
68 64 67 65 70 73 67 70 71 63 59 56 55 57 65 40 47 48 38 31 26 21 20 22 17 11 5 5 3 5 359 4 17 18 16 11 7 11 17 25 24 14 12 26 37 55 60 61 68 71 70 86 110 216 227 217 207 208 209 212 228 233 234 242 257 270 274 270 258 251 253 249 237 301 331 329 324 324 327 335 335 340 343 343 351
63 66 78 73 81 83 81 73 68 64 58 57 63 68 76 70 61 33 33 29 30 26 25 26 23 12 6 1 7 9 11 20 23 22 16 17 4 13 15 20 21 7 3 14 27 44 57 54 59 56 62 84 266 258 249 242 238 219 225 235 233 230 230 249 266 277 270 270 278 263 254 236 263 287 326 321 321 318 313 325 330 334 339 339 344
53 63 80 95 91 90 81 77 70 66 59 64 68 69 71 48 60 39 26 26 24 19 17 23 22 15 1 2 3 15 21 25 31 32 31 10 359 11 16 15 359 343 350 328 314 321 302 246 238 233 298 298 293 277 262 252 240 243 247 248 244 238 258 284 292 287 282 271 277 282 270 259 241 281 317 311 312 314 304 307 320 329 334 337 341
66 75 97 97 87 81 79 75 73 75 71 69 66 50 49 43 45 43 23 22 24 16 15 16 12 15 10 356 358 9 20 26 27 24 0 356 356 357 352 342 333 336 333 338 342 344 311 307 296 293 315 317 309 300 283 261 247 229 227 235 243 253 264 279 289 291 281 263 260 285 283 266 254 259 313 305 303 315 310 297 304 322 331 334 338
94 93 93 92 76 65 65 71 73 74 69 69 63 54 36 37 42 38 25 21 20 21 16 13 11 10 9 2 356 357 13 22 20 14 11 5 15 17 9 3 5 7 358 353 356 349 343 341 359 10 9 7 357 344 324 298 268 250 236 233 239 252 263 270 280 286 283 265 246 226 285 292 272 245 284 304 287 295 317 292 289 316 332 336 337
87 94 108 102 79 66 64 67 70 70 65 62 56 53 52 39 40 32 20 22 19 22 21 16 14 12 11 6 355 357 3 15 23 24 25 21 30 28 22 19 21 21 14 4 4 4 355 358 11 18 21 25 28 18 2 342 317 284 265 254 249 256 270 276 278 279 278 272 260 217 248 281 277 265 248 318 305 294 329 304 286 315 334 338 340
91 95 102 93 81 69 73 77 76 70 67 61 53 47 46 34 37 32 26 28 20 23 25 21 14 14 20 16 4 359 359 14 31 34 35 28 36 33 27 28 30 28 21 13 13 10 4 3 13 20 20 23 31 36 32 21 358 328 301 277 263 259 267 281 293 297 282 278 277 275 238 252 248 269 292 317 320 317 315 256 219 334 335 340 346
84 88 90 87 85 82 79 72 74 71 73 68 60 52 40 38 36 29 28 34 31 28 27 21 19 17 22 24 15 14 14 23 34 38 32 36 37 36 32 34 33 30 20 15 9 10 9 12 18 22 22 27 27 35 33 39 27 8 358 356 335 321 327 335 343 352 334 291 277 274 285 315 243 192 219 275 313 322 306 273 257 9 337 335 349
75 79 86 87 92 86 79 67 60 60 62 59 63 56 44 37 36 31 32 34 35 30 30 28 20 18 22 25 26 24 22 23 33 33 28 37 36 35 33 33 30 26 12 14 8 3 9 11 17 17 19 22 25 24 22 33 37 27 19 18 17 13 358 346 350 351 347 329 293 270 271 274 186 182 187 209 281 296 255 219 225 314 341 337 349
76 82 88 95 97 93 88 79 67 56 55 52 49 49 41 39 37 38 37 42 31 25 42 43 34 25 29 30 30 29 25 26 27 27 28 32 35 35 35 29 28 23 11 13 4 3 3 7 10 14 14 19 22 19 17 21 25 27 21 19 20 13 4 336 323 326 329 324 304 276 256 241 221 193 159 213 189 188 209 166 150 298 301 323 357
70 76 85 97 92 85 80 73 56 47 40 42 40 42 41 39 41 44 46 54 38 26 49 52 47 45 39 40 37 32 30 30 28 25 25 26 31 34 33 29 28 19 12 11 10 8 7 5 3 4 9 13 20 17 11 12 15 17 14 13 11 8 3 349 336 332 330 320 302 282 265 259 248 233 209 229 210 183 181 199 235 258 265 257 20
73 70 74 81 76 80 77 56 46 41 35 33 34 38 37 34 38 45 48 46 50 52 63 63 54 50 47 45 41 33 33 30 31 28 25 25 27 30 32 32 25 14 12 12 12 10 9 7 6 4 7 5 11 14 7 5 10 12 5 3 358 360 353 346 343 336 335 323 306 287 271 266 265 244 228 236 216 192 193 187 189 233 232 232 222
66 82 71 63 74 92 85 67 43 35 35 34 32 39 40 33 27 38 40 19 62 86 89 70 55 49 45 46 42 36 37 36 31 31 26 25 26 29 29 28 18 12 9 8 6 9 8 8 10 7 13 nan nan nan nan nan nan 1 0 357 nan nan 348 342 337 333 327 323 309 295 285 274 260 253 257 253 243 229 201 193 184 170 202 223 247
70 74 53 48 49 55 58 52 38 36 35 36 32 38 43 36 23 32 33 24 23 21 34 70 65 60 50 45 38 35 40 38 37 31 28 22 26 29 28 21 8 4 2 2 359 1 4 3 5 nan nan nan nan nan nan nan nan nan nan nan nan nan nan 348 340 334 329 322 310 303 297 289 270 253 254 256 254 254 256 233 209 173 168 182 253
39 42 47 42 41 40 35 30 31 31 34 32 32 31 33 30 25 36 33 14 22 16 26 47 56 52 46 37 33 32 30 35 35 29 22 22 26 29 28 16 5 356 356 356 354 354 356 nan nan nan nan nan nan nan nan nan nan nan nan nan nan nan 359 354 350 345 338 326 318 303 301 298 287 273 264 264 263 260 262 249 245 211 169 171 201
30 29 30 34 40 40 34 30 27 27 26 25 20 17 19 27 26 31 30 17 14 20 17 27 46 53 42 32 53 49 28 17 6 2 9 26 26 24 15 3 355 355 355 352 349 348 349 358 359 356 nan nan nan nan nan nan nan nan nan nan nan 3 nan nan nan nan 344 337 330 316 302 299 294 288 269 267 260 253 255 272 242 212 186 190 197
28 21 26 24 34 38 39 35 30 22 20 13 13 14 16 20 21 22 21 22 24 12 9 24 26 342 330 312 294 270 268 275 279 270 22 35 24 2 354 349 345 346 348 348 350 348 353 354 356 352 nan 355 nan nan nan nan nan 355 357 357 359 0 3 nan nan 351 349 349 343 336 319 298 290 282 277 275 276 270 265 271 293 286 253 229 214
31 23 26 33 36 39 36 32 25 22 21 16 15 18 6 356 350 348 339 358 339 348 1 9 1 353 328 307 311 318 321 315 333 350 24 25 2 351 347 346 342 338 341 346 349 348 352 351 354 355 348 353 351 345 347 343 344 344 348 353 348 353 355 356 353 352 nan 353 351 344 326 314 293 286 281 277 274 271 264 261 255 248 251 252 258
16 20 29 35 33 32 27 24 22 17 16 14 13 14 8 4 355 336 344 357 351 347 3 351 352 337 334 344 347 348 351 348 2 10 4 1 348 347 344 341 339 332 337 346 351 347 347 347 355 353 351 348 344 341 339 341 339 338 345 346 342 343 346 346 345 347 349 351 349 339 334 323 308 292 285 280 279 274 267 260 257 251 247 240 236
353 6 23 34 24 13 4 18 21 10 3 9 16 8 9 13 20 20 16 10 1 359 349 345 342 344 344 352 347 353 355 355 0 358 355 345 343 340 340 338 329 329 339 346 341 334 343 341 336 337 345 348 337 334 338 335 335 332 332 335 336 337 338 332 335 338 342 347 341 340 336 323 310 293 280 275 271 271 269 264 257 255 255 253 238
349 358 14 22 16 358 1 14 10 9 9 7 5 2 7 13 3 14 2 354 358 353 344 343 344 342 345 348 349 351 351 356 351 348 345 343 344 344 340 336 328 333 336 338 337 341 341 334 335 337 329 340 338 330 329 323 325 327 321 320 323 nan nan 321 321 324 329 332 333 335 332 321 305 292 279 266 267 268 271 269 264 256 254 255 252
340 353 6 1 354 350 359 354 4 4 8 357 334 349 356 355 354 344 346 327 325 324 327 335 338 338 340 341 343 348 348 345 345 343 343 343 339 335 334 332 334 335 336 334 334 340 337 337 338 336 331 328 335 334 334 325 325 320 322 318 nan nan 316 311 321 319 323 nan 325 322 324 322 316 309 297 284 274 267 265 264 261 260 256 250 251
328 334 338 352 327 330 327 336 356 358 346 335 328 338 335 313 293 299 303 307 321 318 311 315 322 324 330 333 337 341 337 340 342 341 339 336 333 333 332 331 332 335 332 330 331 340 335 335 335 338 336 331 321 319 320 321 324 320 316 316 317 318 318 320 318 326 nan 317 314 314 319 nan nan nan 311 298 286 277 273 269 265 266 266 261 253
329 332 327 325 295 333 330 332 337 341 328 323 325 309 287 282 283 280 287 287 284 294 297 302 312 319 317 322 332 328 331 334 333 333 333 333 332 334 331 330 327 326 326 327 330 336 337 336 334 330 331 327 323 318 314 314 320 320 316 311 310 312 321 323 318 nan nan 315 315 312 314 nan nan nan nan nan nan 289 280 271 266 267 266 265 261
326 324 318 316 304 309 309 315 311 313 316 315 311 297 301 302 300 301 303 300 304 304 308 314 315 317 319 319 318 322 326 324 325 327 329 328 331 332 328 323 321 320 321 325 326 324 328 330 330 328 326 325 321 315 315 311 313 314 312 311 312 315 320 320 317 nan nan 320 316 nan nan nan nan nan nan nan nan nan nan nan nan 272 270 267 264
322 306 300 301 306 302 304 310 310 299 295 297 295 291 295 303 312 316 314 316 315 313 307 309 311 311 304 309 313 312 314 316 317 320 322 321 320 319 319 318 315 313 314 313 316 321 324 326 322 321 327 321 316 318 315 316 314 312 311 309 311 313 315 315 318 319 nan nan nan nan nan nan nan nan nan nan nan nan nan nan nan nan nan 273 268
306 292 293 291 298 296 288 294 286 284 282 283 289 293 298 301 303 303 304 307 311 312 306 305 299 299 300 301 301 302 303 305 307 309 312 314 313 315 314 312 310 309 309 313 318 319 317 317 319 320 318 318 319 321 317 311 310 309 307 308 312 312 312 312 312 311 nan nan nan nan nan nan nan nan nan nan nan nan nan nan nan nan nan nan 273
292 291 292 291 289 284 284 279 281 277 277 282 287 290 292 296 298 295 296 295 298 300 298 295 nan nan nan 291 293 296 nan nan nan 309 309 310 313 314 nan 310 310 312 311 313 315 315 319 322 320 319 321 320 319 319 313 315 314 310 307 306 306 306 307 310 311 310 308 nan nan nan nan nan nan nan nan nan nan nan nan nan nan nan nan nan nan
291 290 288 283 283 279 281 282 282 278 277 280 284 286 286 287 289 291 293 292 290 289 294 297 nan nan nan nan nan nan nan 300 nan nan 307 311 313 314 nan 314 315 316 315 nan 318 318 318 319 320 320 320 319 321 320 320 317 316 311 310 309 308 308 305 307 308 309 311 309 nan nan nan nan nan nan nan nan nan nan nan nan nan nan nan nan nan
285 286 284 283 281 282 285 287 288 282 281 284 285 288 286 288 291 295 296 296 295 295 294 nan nan nan nan nan nan nan nan nan nan nan nan nan nan 315 nan nan 315 317 317 nan 317 316 318 319 320 319 317 319 321 322 321 316 313 311 311 312 312 310 311 nan nan 311 311 nan nan nan nan nan nan nan nan nan nan nan nan nan nan nan nan nan nan